Morrisville, VT

3:17 PM EST on November 20, 2019 (GMT -0500)
Morrisville Stowe State

Weather History for KMVL - October, 2019

Change the Weather History Date:

Wednesday, October 23, 2019

  Actual Average Record
Temperature  
Mean Temperature 54 °F 43 °F  
Max Temperature 61 °F 54 °F 68 °F (2017)
Min Temperature 48 °F 33 °F 21 °F (2000)
Degree Days  
Heating Degree Days 10 22  
Month to date heating degree days 398 413  
Since 1 July heating degree days 688 745  
Cooling Degree Days 0 0  
Month to date cooling degree days 0 0  
Year to date cooling degree days 254 265  
Growing Degree Days 4 (Base 50)    
Moisture  
Dew Point 45 °F    
Average Humidity 80    
Maximum Humidity 97    
Minimum Humidity 44    
Precipitation  
Precipitation 0.42 in 0.09 in 1.18 in (1999)
Month to date precipitation 5.57 2.32  
Year to date precipitation 36.13 29.45  
Sea Level Pressure  
Sea Level Pressure 29.86 in    
Wind  
Wind Speed 3 mph ()    
Max Wind Speed 16 mph    
Max Gust Speed 24 mph    
Visibility 7.3 miles    
Events Rain    
T = Trace of Precipitation, MM = Missing Value Source: Averaged Metar Reports

Daily Weather History Graph

Daily Weather History Graph

Search for Another Location

Airport or City:

Astronomy

Oct. 23, 2019 Rise Set
Actual Time 7:15 AM EDT 5:53 PM EDT
Civil Twilight 6:45 AM EDT 6:22 PM EDT
Nautical Twilight 6:11 AM EDT 6:56 PM EDT
Astronomical Twilight 5:38 AM EDT 7:30 PM EDT
Moon 1:13 AM EDT (10/23) 3:57 PM EDT (10/23)
Length of Visible Light 11h 37m
Length of Day
10h 37m
Waning Crescent, 27% of the Moon is Illuminated
Oct 23
Waning Crescent
Oct 27
New
Nov 4
First Quarter
Nov 12
Full
Nov 19
Last Quarter

Hourly Weather History & Observations

Time (EDT) Temp. Dew Point Humidity Pressure Visibility Wind Dir Wind Speed Gust Speed Precip Events Conditions
12:22 AM 50.0 °F 48.0 °F 93% 29.86 in 5.0 mi ESE 3.5 mph - 0.06 in Rain Rain
12:54 AM 50.0 °F 48.9 °F 96% 29.86 in 9.0 mi SSE 3.5 mph - 0.10 in Rain Light Rain
1:54 AM 50.0 °F 48.9 °F 96% 29.83 in 6.0 mi Calm Calm - 0.08 in Rain Light Rain
2:35 AM 50.0 °F 48.9 °F 96% 29.83 in 3.0 mi Variable 3.5 mph - 0.04 in Rain Light Rain
2:54 AM 50.0 °F 48.9 °F 96% 29.84 in 3.0 mi Variable 4.6 mph - 0.09 in Rain Rain
3:16 AM 50.0 °F 48.9 °F 96% 29.83 in 9.0 mi South 6.9 mph - 0.01 in Rain Light Rain
3:54 AM 50.0 °F 48.9 °F 96% 29.81 in 10.0 mi Calm Calm - 0.02 in   Overcast
4:54 AM 50.0 °F 48.9 °F 96% 29.82 in 7.0 mi Calm Calm - 0.03 in Rain Light Rain
5:15 AM 50.0 °F 48.9 °F 96% 29.82 in 5.0 mi Calm Calm - 0.03 in Rain Light Rain
5:39 AM 50.0 °F 48.9 °F 96% 29.83 in 10.0 mi SSE 3.5 mph - 0.05 in Rain Light Rain
5:47 AM 51.1 °F 48.9 °F 92% 29.82 in 10.0 mi Calm Calm - 0.05 in Rain Light Rain
5:54 AM 51.1 °F 48.9 °F 92% 29.84 in 10.0 mi Calm Calm - 0.05 in Rain Light Rain
6:54 AM 50.0 °F 48.9 °F 96% 29.83 in 9.0 mi Calm Calm - 0.04 in   Overcast
7:22 AM 50.0 °F 48.9 °F 96% 29.82 in 10.0 mi Calm Calm - N/A   Overcast
7:34 AM 48.9 °F 48.0 °F 97% 29.82 in 2.5 mi Calm Calm - N/A   Overcast
7:43 AM 50.0 °F 48.0 °F 93% 29.82 in 1.0 mi Calm Calm - N/A   Overcast
7:54 AM 50.0 °F 48.9 °F 96% 29.84 in 1.5 mi Calm Calm - N/A   Overcast
7:57 AM 50.0 °F 48.9 °F 96% 29.83 in 3.0 mi Calm Calm - N/A   Overcast
8:39 AM 50.0 °F 48.9 °F 96% 29.83 in 7.0 mi ESE 3.5 mph - N/A   Overcast
8:54 AM 50.0 °F 48.9 °F 96% 29.84 in 10.0 mi South 3.5 mph - N/A   Mostly Cloudy
9:07 AM 50.0 °F 48.9 °F 96% 29.83 in 1.8 mi SSW 4.6 mph - N/A   Mostly Cloudy
9:11 AM 50.0 °F 48.9 °F 96% 29.83 in 0.8 mi Calm Calm - N/A   Mostly Cloudy
9:21 AM 51.1 °F 50.0 °F 96% 29.83 in 1.2 mi Calm Calm - N/A   Mostly Cloudy
9:32 AM 51.1 °F 50.0 °F 96% 29.83 in 2.0 mi WSW 4.6 mph - N/A   Overcast
9:43 AM 51.1 °F 50.0 °F 96% 29.83 in 3.0 mi Calm Calm - N/A   Overcast
9:54 AM 53.1 °F 50.0 °F 89% 29.83 in 10.0 mi Calm Calm - N/A   Scattered Clouds
10:54 AM 55.9 °F 48.9 °F 77% 29.84 in 10.0 mi Calm Calm - N/A   Mostly Cloudy
11:06 AM 57.0 °F 48.9 °F 74% 29.84 in 10.0 mi Variable 4.6 mph - N/A   Overcast
11:13 AM 57.0 °F 48.9 °F 74% 29.83 in 10.0 mi NNE 6.9 mph - N/A   Mostly Cloudy
11:54 AM 59.0 °F 42.1 °F 53% 29.84 in 10.0 mi Variable 3.5 mph - N/A   Partly Cloudy
12:54 PM 57.9 °F 37.9 °F 47% 29.84 in 10.0 mi West 8.1 mph - N/A   Clear
1:54 PM 59.0 °F 37.9 °F 46% 29.84 in 10.0 mi NW 8.1 mph 18.4 mph N/A   Mostly Cloudy
2:54 PM 57.0 °F 37.9 °F 49% 29.85 in 10.0 mi NW 6.9 mph - N/A   Overcast
3:54 PM 57.0 °F 39.0 °F 51% 29.87 in 10.0 mi Variable 3.5 mph - 0.01 in   Mostly Cloudy
4:54 PM 57.0 °F 35.1 °F 44% 29.90 in 10.0 mi SW 8.1 mph - N/A   Mostly Cloudy
5:54 PM 54.0 °F 34.0 °F 47% 29.93 in 10.0 mi Variable 3.5 mph - N/A   Scattered Clouds
7:54 PM 52.0 °F 36.0 °F 54% 30.00 in 10.0 mi Variable 3.5 mph - N/A   Overcast
8:54 PM 51.1 °F 35.1 °F 54% 30.02 in 10.0 mi SW 5.8 mph - N/A   Mostly Cloudy
9:54 PM 52.0 °F 34.0 °F 50% 30.04 in 10.0 mi North - - N/A   Overcast
10:54 PM 53.1 °F 34.0 °F 48% 30.06 in 10.0 mi WSW 8.1 mph - N/A   Overcast
11:54 PM 52.0 °F 35.1 °F 53% 30.06 in 10.0 mi SSW 9.2 mph - N/A   Overcast